Deming, NM

7:30 AM MST on February 12, 2016 (GMT -0700)
Deming Municipal

Weather History for KDMN - May, 2013

Change the Weather History Date:

Wednesday, May 8, 2013

  Actual Average Record
Temperature  
Mean Temperature 64 °F 67 °F  
Max Temperature 79 °F 85 °F 98 °F (1989)
Min Temperature 51 °F 49 °F 36 °F (1964)
Growing Degree Days 14 (Base 50)    
Moisture  
Dew Point 23 °F    
Average Humidity 22    
Maximum Humidity 39    
Minimum Humidity 10    
Precipitation  
Precipitation 0.00 in 0.02 in 0.19 in (1957)
Month to date precipitation 0.22  
Year to date precipitation 2.20  
Sea Level Pressure  
Sea Level Pressure 29.84 in    
Wind  
Wind Speed 12 mph (West)    
Max Wind Speed 22 mph    
Max Gust Speed 28 mph    
Visibility 10 miles    
Events      
T = Trace of Precipitation, MM = Missing Value Source: NWS Daily Summary

Daily Weather History Graph

Daily Weather History Graph

Search for Another Location

Airport or City:

Trip Planner

Search our weather history database for the weather conditions in past years. The results will help you decide how hot, cold, wet, or windy it might be!

Date:

Astronomy

May. 08, 2013 Rise Set
Actual Time 6:18 AM MDT 7:57 PM MDT
Civil Twilight 5:51 AM MDT 8:23 PM MDT
Nautical Twilight 5:19 AM MDT 8:55 PM MDT
Astronomical Twilight 4:46 AM MDT 9:29 PM MDT
Moon 5:23 AM MDT (5/8) 7:00 PM MDT (5/8)
Length of Visible Light 14h 32m
Length of Day
13h 39m
Waning Crescent, 2% of the Moon is Illuminated
May 8
Waning Crescent
May 9
New
May 17
First Quarter
May 24
Full
May 31
Last Quarter

Hourly Weather History & Observations

Time (MDT) Temp. Dew Point Humidity Pressure Visibility Wind Dir Wind Speed Gust Speed Precip Events Conditions
12:53 AM 64.0 °F 26.1 °F 24% 29.80 in 10.0 mi WSW 11.5 mph 19.6 mph N/A   Clear
1:53 AM 62.1 °F 27.0 °F 26% 29.80 in 10.0 mi West 11.5 mph 19.6 mph N/A   Clear
2:53 AM 57.0 °F 26.1 °F 30% 29.81 in 10.0 mi West 8.1 mph - N/A   Clear
3:53 AM 55.9 °F 21.9 °F 27% 29.83 in 10.0 mi West 8.1 mph - N/A   Clear
4:53 AM 55.0 °F 23.0 °F 29% 29.84 in 10.0 mi WSW 8.1 mph - N/A   Clear
5:53 AM 53.1 °F 25.0 °F 34% 29.86 in 10.0 mi WSW 8.1 mph - N/A   Clear
6:53 AM 51.1 °F 27.0 °F 39% 29.88 in 10.0 mi WSW 8.1 mph - N/A   Clear
7:53 AM 57.0 °F 32.0 °F 39% 29.90 in 10.0 mi West 8.1 mph - N/A   Clear
8:53 AM 63.0 °F 30.9 °F 30% 29.91 in 10.0 mi West 9.2 mph - N/A   Clear
9:53 AM 66.0 °F 30.0 °F 26% 29.91 in 10.0 mi West 19.6 mph 26.5 mph N/A   Clear
10:53 AM 68.0 °F 27.0 °F 21% 29.92 in 10.0 mi West 13.8 mph 25.3 mph N/A   Clear
11:53 AM 71.1 °F 28.0 °F 20% 29.90 in 10.0 mi WSW 16.1 mph 26.5 mph N/A   Clear
12:53 PM 73.9 °F 25.0 °F 16% 29.86 in 10.0 mi West 15.0 mph 20.7 mph N/A   Clear
1:53 PM 75.0 °F 21.9 °F 14% 29.84 in 10.0 mi West 17.3 mph 25.3 mph N/A   Clear
2:53 PM 75.9 °F 19.9 °F 12% 29.82 in 10.0 mi West 20.7 mph 26.5 mph N/A   Clear
3:53 PM 78.1 °F 19.0 °F 11% 29.80 in 10.0 mi West 11.5 mph 23.0 mph N/A   Clear
4:53 PM 78.1 °F 18.0 °F 10% 29.79 in 10.0 mi West 21.9 mph 25.3 mph N/A   Clear
5:53 PM 78.1 °F 17.1 °F 10% 29.79 in 10.0 mi West 17.3 mph 27.6 mph N/A   Clear
6:53 PM 75.9 °F 17.1 °F 11% 29.79 in 10.0 mi West 17.3 mph 21.9 mph N/A   Clear
7:53 PM 73.0 °F 16.0 °F 11% 29.80 in 10.0 mi NW 10.4 mph 19.6 mph N/A   Clear
8:53 PM 69.1 °F 17.1 °F 14% 29.81 in 10.0 mi WNW 9.2 mph - N/A   Clear
9:53 PM 66.0 °F 19.0 °F 17% 29.83 in 10.0 mi WNW 10.4 mph - N/A   Clear
10:53 PM 63.0 °F 21.0 °F 20% 29.85 in 10.0 mi WNW 5.8 mph - N/A   Clear
11:53 PM 55.9 °F 19.9 °F 25% 29.87 in 10.0 mi WNW 3.5 mph - N/A   Clear